User: anonymous   Login
Location: Hannover
(52.3723°N, 9.7339°E)
Time: 11:14:43
(UTC+01:00)
Language:

Oscar 11 - Orbit

View from above orbital plane
View from above orbital plane
View from above satellite
View from above satellite

Ground track
Ground track

The orbit data is extracted from the following two-line orbital elements,

1 14781U 84021B   20019.11135688  .00000059  00000-0  13356-4 0  9997
2 14781  97.5975  38.5059 0007959 345.4589  14.6396 14.83135878930541
Epoch (UTC): 19 January 2020 02:40:21
Eccentricity: 0.0007959
inclination: 97.5975°
perigee height: 614 km
apogee height: 625 km
right ascension of ascending node: 38.5059°
argument of perigee: 345.4589°
revolutions per day: 14.83135878
mean anomaly at epoch: 14.6396°
orbit number at epoch: 93054

The dashed part of the orbit path shows where the satellite is in the earth's shadow,  

DLR